SBIRS GEO-3 (USA 282)

Last updated on Sept. 24, 2020, 5:43 a.m. UTC

1 43162U 18009A   20267.81534590 -.00000311  00000-0  00000+0 0  9991
2 43162   4.7705 317.0373 0002708 215.0248 263.5654  1.00272967  9851
UTC
Height (km)
Latitude
Longitude
Inclination
Orbital Period
UTC large
Height (km)
Speed (km/s)
/
Latitude / Longitude
Inclination (degrees)
Orbital Period (minutes)
Azimuth
Elevation
Range (km)
Doppler Factor
iOS Compass Heading
iOS Angle

Next 30 passes for location: Hong Kong

Rise time Rise Azimuth (degrees) Set time Set Azimuth (degrees) Duration Max altitude (degrees)

No matching passes for this satellites